SUMZM TFFF-TVSA

Flight info

Callsign SUMZM
Flight time 0h 36m
Altitude 9000
Route KISES2R KISES A324 RIBOR
Aircraft PC12/L-SDFGRWY/S

Departure

Time 2026-05-08 16:36
Airport Martinique Aimé Césaire International Airport (TFFF)

Arrival

Time 2026-05-08 17:12
Airport Argyle International Airport (TVSA)
Time Latitude Longitude Altitude Speed Heading
2026-05-08 16:31 14.59332 -61.00686 14 ft 0 kts 350°
2026-05-08 16:34 14.59345 -61.00694 14 ft 6 kts 302°
2026-05-08 16:34 14.59287 -61.00717 13 ft 15 kts 173°
2026-05-08 16:34 14.59185 -61.00699 14 ft 14 kts 171°
2026-05-08 16:35 14.59111 -61.00686 15 ft 11 kts 170°
2026-05-08 16:35 14.59050 -61.00646 14 ft 11 kts 82°
2026-05-08 16:35 14.59051 -61.00639 14 ft 0 kts 78°
2026-05-08 16:35 14.59072 -61.00529 12 ft 46 kts 77°
2026-05-08 16:36 14.59155 -61.00048 130 ft 77 kts 76°
2026-05-08 16:36 14.59257 -60.99455 367 ft 97 kts 79°
2026-05-08 16:36 14.59385 -60.98708 667 ft 113 kts 78°
2026-05-08 16:36 14.59581 -60.97825 1012 ft 141 kts 72°
2026-05-08 16:37 14.59866 -60.96758 1375 ft 165 kts 73°
2026-05-08 16:37 14.60209 -60.95584 1766 ft 180 kts 72°
2026-05-08 16:37 14.60593 -60.94328 2160 ft 188 kts 71°
2026-05-08 16:37 14.60997 -60.93033 2511 ft 189 kts 72°
2026-05-08 16:38 14.61401 -60.91744 2882 ft 193 kts 72°
2026-05-08 16:38 14.61825 -60.90408 3239 ft 197 kts 71°
2026-05-08 16:38 14.62257 -60.89060 3596 ft 198 kts 71°
2026-05-08 16:38 14.62690 -60.87712 3959 ft 197 kts 71°
2026-05-08 16:39 14.63124 -60.86364 4324 ft 198 kts 71°
2026-05-08 16:39 14.63559 -60.85017 4695 ft 199 kts 71°
2026-05-08 16:39 14.63996 -60.83662 5057 ft 199 kts 71°
2026-05-08 16:39 14.64438 -60.82296 5422 ft 201 kts 71°
2026-05-08 16:40 14.64883 -60.80921 5785 ft 203 kts 71°
2026-05-08 16:40 14.65330 -60.79537 6153 ft 203 kts 71°
2026-05-08 16:40 14.65700 -60.78133 6509 ft 203 kts 84°
2026-05-08 16:40 14.65357 -60.76725 6854 ft 207 kts 118°
2026-05-08 16:41 14.64340 -60.75680 7198 ft 211 kts 151°
2026-05-08 16:41 14.62906 -60.75431 7544 ft 215 kts 187°
2026-05-08 16:41 14.61573 -60.76056 7901 ft 215 kts 217°
2026-05-08 16:42 14.59060 -60.77788 8483 ft 222 kts 208°
2026-05-08 16:42 14.57680 -60.78525 8731 ft 226 kts 207°
2026-05-08 16:42 14.56279 -60.79284 8976 ft 229 kts 208°
2026-05-08 16:42 14.54844 -60.80082 8994 ft 240 kts 208°
2026-05-08 16:43 14.53355 -60.80913 8997 ft 246 kts 208°
2026-05-08 16:43 14.51826 -60.81761 8996 ft 251 kts 208°
2026-05-08 16:43 14.50278 -60.82617 9003 ft 254 kts 208°
2026-05-08 16:43 14.48718 -60.83479 8997 ft 257 kts 208°
2026-05-08 16:44 14.47133 -60.84359 8994 ft 258 kts 208°
2026-05-08 16:44 14.45545 -60.85239 8998 ft 259 kts 208°
2026-05-08 16:44 14.43981 -60.86104 9006 ft 260 kts 208°
2026-05-08 16:44 14.42386 -60.86986 8997 ft 259 kts 208°
2026-05-08 16:45 14.40794 -60.87868 9009 ft 259 kts 208°
2026-05-08 16:45 14.39129 -60.88503 8990 ft 253 kts 195°
2026-05-08 16:45 14.37546 -60.89286 8991 ft 254 kts 213°
2026-05-08 16:45 14.36073 -60.90303 8988 ft 255 kts 213°
2026-05-08 16:46 14.34554 -60.91251 8990 ft 255 kts 209°
2026-05-08 16:46 14.32983 -60.92106 8993 ft 256 kts 207°
2026-05-08 16:46 14.31409 -60.92958 8995 ft 256 kts 208°
2026-05-08 16:46 14.30370 -60.93539 9000 ft 256 kts 208°
2026-05-08 16:47 14.28805 -60.94423 9002 ft 257 kts 208°
2026-05-08 16:47 14.26702 -60.95602 9004 ft 257 kts 208°
2026-05-08 16:47 14.25658 -60.96184 9003 ft 257 kts 208°
2026-05-08 16:47 14.24083 -60.97064 9005 ft 257 kts 208°
2026-05-08 16:48 14.22515 -60.97940 9004 ft 257 kts 208°
2026-05-08 16:48 14.20937 -60.98823 9008 ft 258 kts 208°
2026-05-08 16:48 14.19339 -60.99649 9006 ft 257 kts 200°
2026-05-08 16:48 14.17606 -61.00017 9005 ft 257 kts 182°
2026-05-08 16:49 14.15826 -60.99955 9010 ft 255 kts 175°
2026-05-08 16:49 14.14046 -60.99855 9010 ft 257 kts 176°
2026-05-08 16:49 14.12257 -60.99766 9017 ft 257 kts 176°
2026-05-08 16:49 14.10469 -60.99676 9014 ft 258 kts 176°
2026-05-08 16:50 14.08677 -60.99581 9016 ft 258 kts 176°
2026-05-08 16:50 14.06885 -60.99485 9016 ft 258 kts 176°
2026-05-08 16:50 14.05338 -60.99403 9015 ft 258 kts 176°
2026-05-08 16:50 14.03542 -60.99308 9011 ft 258 kts 176°
2026-05-08 16:51 14.01774 -60.99215 9023 ft 258 kts 176°
2026-05-08 16:51 13.99970 -60.99119 9015 ft 260 kts 176°
2026-05-08 16:51 13.98155 -60.99022 9013 ft 260 kts 176°
2026-05-08 16:51 13.96345 -60.98926 9012 ft 261 kts 176°
2026-05-08 16:52 13.94538 -60.98830 9016 ft 260 kts 176°
2026-05-08 16:52 13.92728 -60.98734 9006 ft 260 kts 176°
2026-05-08 16:52 13.90925 -60.98638 9009 ft 259 kts 176°
2026-05-08 16:52 13.89127 -60.98543 9007 ft 259 kts 176°
2026-05-08 16:53 13.85536 -60.98352 9005 ft 260 kts 176°
2026-05-08 16:53 13.83726 -60.98257 9004 ft 259 kts 176°
2026-05-08 16:53 13.81933 -60.98161 9009 ft 260 kts 176°
2026-05-08 16:54 13.80114 -60.98065 9000 ft 260 kts 176°
2026-05-08 16:54 13.78313 -60.97969 9001 ft 259 kts 176°
2026-05-08 16:54 13.76512 -60.97873 9006 ft 260 kts 176°
2026-05-08 16:54 13.74702 -60.97779 9003 ft 259 kts 176°
2026-05-08 16:55 13.72914 -60.97944 8994 ft 260 kts 193°
2026-05-08 16:55 13.71220 -60.98585 8995 ft 259 kts 202°
2026-05-08 16:55 13.69552 -60.99297 8992 ft 260 kts 202°
2026-05-08 16:55 13.67900 -60.99996 8993 ft 259 kts 202°
2026-05-08 16:56 13.66208 -61.00707 8992 ft 259 kts 202°
2026-05-08 16:56 13.64562 -61.01400 8993 ft 259 kts 202°
2026-05-08 16:56 13.62884 -61.02107 8989 ft 259 kts 202°
2026-05-08 16:56 13.61221 -61.02808 8990 ft 259 kts 202°
2026-05-08 16:57 13.59555 -61.03509 8988 ft 259 kts 202°
2026-05-08 16:57 13.57888 -61.04211 8985 ft 259 kts 202°
2026-05-08 16:57 13.56210 -61.04918 8985 ft 259 kts 202°
2026-05-08 16:57 13.54545 -61.05619 8982 ft 259 kts 202°
2026-05-08 16:58 13.52873 -61.06323 8980 ft 259 kts 202°
2026-05-08 16:58 13.51205 -61.07025 8977 ft 259 kts 202°
2026-05-08 16:58 13.49531 -61.07729 8977 ft 259 kts 202°
2026-05-08 16:58 13.47883 -61.08423 8975 ft 259 kts 202°
2026-05-08 16:59 13.46208 -61.09127 8973 ft 259 kts 202°
2026-05-08 16:59 13.44536 -61.09830 8974 ft 259 kts 202°
2026-05-08 16:59 13.42989 -61.10481 8977 ft 259 kts 202°
2026-05-08 16:59 13.41307 -61.11187 8978 ft 259 kts 202°
2026-05-08 17:00 13.39639 -61.11889 8980 ft 259 kts 202°
2026-05-08 17:00 13.37956 -61.12519 8980 ft 257 kts 192°
2026-05-08 17:00 13.36210 -61.12744 8982 ft 255 kts 184°
2026-05-08 17:00 13.34441 -61.12919 8995 ft 257 kts 185°
2026-05-08 17:01 13.32650 -61.13113 8989 ft 258 kts 185°
2026-05-08 17:01 13.30856 -61.13308 8997 ft 259 kts 185°
2026-05-08 17:01 13.29061 -61.13497 8841 ft 259 kts 185°
2026-05-08 17:01 13.27270 -61.13684 8511 ft 258 kts 185°
2026-05-08 17:02 13.25482 -61.13871 8199 ft 258 kts 185°
2026-05-08 17:02 13.23699 -61.14057 7882 ft 257 kts 185°
2026-05-08 17:02 13.21909 -61.14244 7573 ft 258 kts 185°
2026-05-08 17:02 13.20157 -61.14581 7265 ft 256 kts 201°
2026-05-08 17:03 13.18732 -61.15621 6946 ft 256 kts 226°
2026-05-08 17:03 13.17564 -61.16981 6664 ft 254 kts 228°
2026-05-08 17:03 13.16321 -61.18270 6355 ft 253 kts 223°
2026-05-08 17:03 13.14985 -61.19449 6083 ft 253 kts 218°
2026-05-08 17:04 13.13635 -61.20624 5781 ft 256 kts 219°
2026-05-08 17:04 13.12323 -61.21816 5451 ft 248 kts 220°
2026-05-08 17:04 13.11051 -61.22982 5133 ft 242 kts 220°
2026-05-08 17:04 13.09794 -61.24120 4810 ft 239 kts 219°
2026-05-08 17:05 13.08555 -61.25238 4494 ft 236 kts 219°
2026-05-08 17:05 13.07342 -61.26333 4173 ft 233 kts 220°
2026-05-08 17:05 13.06127 -61.27431 3830 ft 230 kts 219°
2026-05-08 17:05 13.04782 -61.28251 3510 ft 223 kts 196°
2026-05-08 17:06 13.03277 -61.28485 3204 ft 217 kts 175°
2026-05-08 17:06 13.01834 -61.28152 2971 ft 207 kts 153°
2026-05-08 17:06 13.00681 -61.27398 2972 ft 190 kts 135°
2026-05-08 17:06 12.99882 -61.26383 2976 ft 178 kts 117°
2026-05-08 17:07 12.99407 -61.25241 2978 ft 177 kts 108°
2026-05-08 17:07 12.99016 -61.24031 2966 ft 178 kts 98°
2026-05-08 17:07 12.99097 -61.22797 2972 ft 173 kts 75°
2026-05-08 17:07 12.99631 -61.21725 2965 ft 169 kts 53°
2026-05-08 17:08 13.00526 -61.20955 2941 ft 169 kts 32°
2026-05-08 17:08 13.01638 -61.20492 2703 ft 179 kts 23°
2026-05-08 17:08 13.02842 -61.20027 2460 ft 186 kts 24°
2026-05-08 17:08 13.04048 -61.19552 2219 ft 190 kts 24°
2026-05-08 17:09 13.05318 -61.19054 1997 ft 206 kts 23°
2026-05-08 17:09 13.06686 -61.18519 1950 ft 215 kts 24°
2026-05-08 17:09 13.08003 -61.17998 1768 ft 190 kts 25°
2026-05-08 17:09 13.09202 -61.17549 1416 ft 176 kts 24°
2026-05-08 17:10 13.10270 -61.17153 1065 ft 151 kts 25°
2026-05-08 17:10 13.11146 -61.16783 845 ft 124 kts 25°
2026-05-08 17:10 13.11894 -61.16480 693 ft 89 kts 25°
2026-05-08 17:10 13.12430 -61.16273 587 ft 78 kts 23°
2026-05-08 17:11 13.12901 -61.16076 540 ft 69 kts 24°
2026-05-08 17:11 13.13403 -61.15915 438 ft 77 kts 23°
2026-05-08 17:11 13.13918 -61.15685 404 ft 84 kts 24°
2026-05-08 17:11 13.14436 -61.15480 337 ft 77 kts 23°
2026-05-08 17:12 13.14935 -61.15290 173 ft 71 kts 24°
2026-05-08 17:12 13.15332 -61.15138 122 ft 50 kts 18°
2026-05-08 17:12 13.15549 -61.15049 117 ft 26 kts 18°
2026-05-08 17:12 13.15719 -61.14987 114 ft 26 kts 22°
2026-05-08 17:13 13.15887 -61.14919 109 ft 27 kts 20°
2026-05-08 17:13 13.16009 -61.14962 100 ft 14 kts 290°
2026-05-08 17:13 13.16036 -61.15034 97 ft 9 kts 290°
2026-05-08 17:13 13.16072 -61.15096 96 ft 11 kts 330°
2026-05-08 17:14 13.16144 -61.15083 96 ft 10 kts 20°
2026-05-08 17:14 13.16182 -61.15069 96 ft 0 kts 18°